AirNav   Everest Fuels
 
 934 users online  

30FD City of Fort Lauderdale Heliport
Fort Lauderdale, Florida, USA

GOING TO FORT LAUDERDALE?


FAA INFORMATION EFFECTIVE 21 MAY 2020

Location

FAA Identifier: 30FD
Lat/Long: 26-07-26.3100N 080-08-39.1620W
26-07.438500N 080-08.652700W
26.1239750,-80.1442117
(estimated)
Elevation: 6 ft. / 2 m (estimated)
Variation: 03W (1985)
Time zone: UTC -4 (UTC -5 during Standard Time)
Zip code: 33301

Heliport Operations

Heliport use: Private use. Permission required prior to landing
Activation date: 08/1991
Control tower: no
ARTCC: MIAMI CENTER
FSS: MIAMI FLIGHT SERVICE STATION
Attendance: UNATNDD
Wind indicator: yes
Segmented circle: no
Lights: SS-SR
Beacon: white-green-yellow (heliport)
ACTVT ROTG BCN - UNICOM.

Heliport Communications

UNICOM: 123.05
WX ASOS at FLL (3 nm S): PHONE 954-359-7857
WX ASOS at FXE (5 nm N): PHONE 954-772-2537
WX ASOS at PMP (8 nm N): PHONE 954-783-3720
WX ASOS at HWO (9 nm SW): PHONE 954-983-5904
WX ASOS at OPF (15 nm SW): 125.9 (305-681-4063)
WX AWOS-3 at BCT (15 nm N): 121.125 (561-391-2696)

Nearby radio navigation aids

VOR radial/distance  VOR name  Freq  Var
FLLr028/3.2FORT LAUDERDALE VOR/DME114.4006W
VKZr005/22.3VIRGINIA KEY VOR/DME117.1004W
DHPr034/22.4DOLPHIN VORTAC113.9004W
PBIr188/33.5PALM BEACH VORTAC115.7003W

Heliport Services

Runway Information

Helipad H1

Dimensions: 44 x 44 ft. / 13 x 13 m
Surface: asphalt/concrete
Runway edge lights: FLD
Operational restrictions: CIRCULAR HELIPAD.
Latitude: 26-07.438500N
Longitude: 080-08.652700W
Elevation: 6.0 ft.
Traffic pattern: leftleft

Heliport Ownership and Management from official FAA records

Ownership: Publicly-owned
Owner: CITY OF FORT LAUDERDALE
1401 W COMMERCIAL BLVD STE 200
FORT LAUDERDALE, FL 33309
Phone 954-761-5002
Manager: WILLIAM H. CROUCH JR
1401 W COMMERCIAL BLVD STE 200
FORT LAUDERDALE, FL 33309
Phone 954-938-4966

Additional Remarks

A52-H1 40 FT PLINES 50 FT NORTH OF PAD.
NUMEROUS CRANES INVOF HELIPAD.
MAXIMUM ROTOR DIAMETER 44 FT.
FOR CD CTC MIAMI APCH AT 305-869-5432.

Instrument Procedures

There are no published instrument procedures at 30FD.

Some nearby airports with instrument procedures:

KFLL - Fort Lauderdale/Hollywood International Airport (3 nm S)
KFXE - Fort Lauderdale Executive Airport (5 nm N)
KPMP - Pompano Beach Airpark (8 nm N)
KHWO - North Perry Airport (9 nm SW)
KOPF - Miami-Opa Locka Executive Airport (15 nm SW)
KBCT - Boca Raton Airport (15 nm N)
 
Loc | Ops | Rwys | IFR | FBO | Links
Com | Nav | Svcs | Stats | Notes

Reliance Aviation
AirBoss

 
Area around 30FD (City of Fort Lauderdale Heliport)
 
Road maps at: MapQuest Bing Google
 
Aerial photo
No photo
 
Sectional chart

 
Airport distance calculator
Flying to City of Fort Lauderdale Heliport? Find the distance to fly.

From to 30FD

Sunrise and sunset
Times for 06-Jun-2020
 Local
(UTC-4)
 Zulu
(UTC)
Morning civil twilight06:0310:03
Sunrise06:2910:29
Sunset20:1000:10
Evening civil twilight20:3600:36

Current date and time
Zulu (UTC)  06-Jun-2020 14:21:10
Local (UTC-4)  06-Jun-2020 10:21:10
 
METAR
KFLL 
3nm S 
061353Z 14015KT 10SM FEW029 SCT032 OVC200 29/26 A2999 RMK AO2 SLP156 T02890256
KFXE 
5nm NW 
061353Z 13015G20KT 10SM SCT020 BKN033 29/25 A3000 RMK AO2 SLP161 T02890250 $
KPMP 
8nm N 
061353Z 14014G21KT 8SM SCT022 BKN030 27/25 A3000 RMK AO2 SLP161 T02670250 $
KHWO 
9nm SW 
061353Z 13014G19KT 10SM SCT018 OVC027 A3001 RMK AO2 SLP164
KOPF 
15nm SW 
061353Z 13014KT 10SM FEW018 BKN023 BKN030 29/26 A3000 RMK AO2 SLP160 T02890256
KBCT 
16nm N 
061150Z 14010KT 10SM SCT022 29/25 A2998
TAF
KFLL 
3nm S 
061153Z 0612/0718 12011KT P6SM VCSH FEW015 SCT025 BKN050 FM061400 15015KT P6SM VCTS SCT025CB BKN035 FM062100 15007KT P6SM FEW025 SCT050 BKN150 FM071200 16010KT P6SM SCT030 BKN100
KFXE 
5nm NW 
061153Z 0612/0712 12011KT P6SM VCSH FEW015 SCT025 BKN050 FM061400 15015KT P6SM VCTS SCT025CB BKN035 FM062100 15007KT P6SM FEW025 SCT050 BKN150
KOPF 
15nm SW 
061153Z 0612/0712 12011KT P6SM VCSH FEW015 SCT025 BKN050 FM061400 15015KT P6SM VCTS SCT025CB BKN035 FM062100 15007KT P6SM FEW025 SCT050 BKN150
NOTAMs
Click for the latest NOTAMs
NOTAMs are issued by the DoD/FAA and will open in a separate window not controlled by AirNav.

 

 
 

Would you like to see your business listed on this page?

 If your business provides an interesting product or service to pilots, flight crews, aircraft, or users of the City of Fort Lauderdale Heliport, you should consider listing it here.  To start the listing process, click on the button below
 
Add a business
 

Other Pages about City of Fort Lauderdale Heliport

Update a link
 
Copyright © AirNav, LLC. All rights reserved. Privacy Policy  Contact